Stations météo

réclame
Mon MeteoGroup
Tortosa, Espagne (8238): Température de l'air & dewpoint: 18.10.2018 07:00:00 - 24.10.2018 07:00:00 (CEST)Tortosa, Espagne (8238): Vitesse du vent: 18.10.2018 07:00:00 - 24.10.2018 07:00:00 (CEST)Tortosa, Espagne (8238): Direction du vent: 18.10.2018 07:00:00 - 24.10.2018 07:00:00 (CEST)Tortosa, Espagne (8238): reduced air pressure: 18.10.2018 07:00:00 - 24.10.2018 07:00:00 (CEST)Tortosa, Espagne (8238): visibility: 18.10.2018 07:00:00 - 24.10.2018 07:00:00 (CEST)Tortosa, Espagne (8238): Quantités de précipitations: 18.10.2018 07:00:00 - 24.10.2018 07:00:00 (CEST)
Date & Time tt [°C] td [°C] ff [km/h] ff [knt] dd ppp [hPa] vv [km] rr [mm]
24.10.2018 07:00:00 - - - - - - - -
24.10.2018 06:00:00 15,7 7,7 13 7 N 1023,7 20 0,0
24.10.2018 05:00:00 15,7 7,7 11 6 N 1023,8 20 -
24.10.2018 04:00:00 15,6 8,1 13 7 N 1023,9 20 0,0
24.10.2018 03:00:00 14,0 8,6 5 3 N 1024,7 20 0,0
24.10.2018 02:00:00 12,6 9,8 9 5 N 1025,2 20 -
24.10.2018 01:00:00 13,0 10,5 2 1 ENE 1025,6 20 0,0
24.10.2018 00:00:00 13,7 10,5 5 3 N 1025,6 20 0,0
23.10.2018 23:00:00 14,5 11,8 2 1 W 1025,9 16 -
23.10.2018 22:00:00 16,0 12,0 2 1 WSW 1026,1 20 0,0
23.10.2018 21:00:00 17,1 11,8 4 2 SSE 1026,0 20 0,0
23.10.2018 20:00:00 18,6 10,4 4 2 SSW 1025,7 8 -
23.10.2018 19:00:00 20,4 10,8 5 3 SSE 1025,1 20 0,0
23.10.2018 18:00:00 22,8 10,6 8 4 NNE 1024,7 13 0,0
23.10.2018 17:00:00 23,9 9,5 8 4 NNE 1024,6 10 -
23.10.2018 16:00:00 24,3 10,2 11 6 NNE 1024,9 20 0,0
23.10.2018 15:00:00 24,1 10,4 11 6 NNE 1025,4 20 0,0
23.10.2018 14:00:00 23,2 9,9 13 7 NNE 1025,8 7 -
23.10.2018 13:00:00 22,2 10,3 11 6 NNE 1026,6 20 0,0
23.10.2018 12:00:00 20,8 10,0 11 6 NNE 1027,1 18 0,0
23.10.2018 11:00:00 19,0 9,7 13 7 NNE 1027,2 7 -
23.10.2018 10:00:00 16,5 8,7 11 6 NNE 1026,7 20 0,0
23.10.2018 09:00:00 14,3 7,6 13 7 N 1026,1 20 0,0
23.10.2018 08:00:00 13,6 7,4 13 7 N 1025,5 20 -
23.10.2018 07:00:00 13,5 7,0 11 6 N 1025,4 20 0,0
23.10.2018 06:00:00 13,6 6,9 11 6 N 1025,1 20 0,0
23.10.2018 05:00:00 13,9 7,2 11 6 NNE 1025,1 20 -
23.10.2018 04:00:00 14,1 7,8 9 5 N 1024,9 20 0,0
23.10.2018 03:00:00 14,2 8,2 9 5 N 1025,3 20 0,0
23.10.2018 02:00:00 13,8 12,9 5 3 N 1025,4 6 -
23.10.2018 01:00:00 14,7 14,1 2 1 WNW 1025,5 5 0,0
23.10.2018 00:00:00 15,2 14,2 4 2 WSW 1025,0 7 0,0
22.10.2018 23:00:00 15,1 13,8 4 2 N 1024,5 7 -
22.10.2018 22:00:00 16,4 14,4 5 3 NW 1023,9 11 0,0
22.10.2018 21:00:00 17,8 15,1 4 2 SSW 1023,3 13 0,0
22.10.2018 20:00:00 18,6 15,3 5 3 SSW 1022,9 10 -
22.10.2018 19:00:00 20,2 15,4 9 5 S 1022,3 18 0,0
22.10.2018 18:00:00 22,5 15,1 9 5 SSE 1021,7 19 0,0
22.10.2018 17:00:00 24,4 15,9 13 7 SSE 1021,2 8 -
22.10.2018 16:00:00 25,3 14,7 9 5 S 1020,8 20 0,0
22.10.2018 15:00:00 24,4 12,4 5 3 S 1021,2 20 0,0
22.10.2018 14:00:00 25,0 12,2 5 3 NW 1021,7 8 -
22.10.2018 13:00:00 24,8 12,4 8 4 NNE 1022,0 20 0,0
22.10.2018 12:00:00 23,9 13,4 9 5 NE 1021,9 20 0,0
22.10.2018 11:00:00 22,2 13,0 9 5 NNE 1021,7 8 -
22.10.2018 10:00:00 19,3 13,2 9 5 N 1020,9 20 0,0
22.10.2018 09:00:00 17,6 11,6 13 7 NNE 1019,8 20 0,0
22.10.2018 08:00:00 17,3 11,6 9 5 N 1018,8 20 -
22.10.2018 07:00:00 17,3 11,8 9 5 N 1018,3 14 0,0
22.10.2018 06:00:00 17,5 12,4 9 5 N 1018,0 20 0,0
22.10.2018 05:00:00 17,1 13,2 11 6 N 1017,8 20 -
22.10.2018 04:00:00 15,0 14,4 11 6 N 1018,3 14 0,0
22.10.2018 03:00:00 14,7 13,9 2 1 WNW 1018,7 10 0,0
22.10.2018 02:00:00 15,1 14,0 4 2 NW 1019,1 11 -
22.10.2018 01:00:00 15,5 14,0 5 3 NW 1019,1 15 0,0
22.10.2018 00:00:00 16,1 14,5 5 3 N 1019,3 13 0,0
21.10.2018 23:00:00 17,0 14,5 8 4 NNW 1019,1 19 -
21.10.2018 22:00:00 17,6 15,2 8 4 N 1018,8 15 0,0
21.10.2018 21:00:00 19,3 15,8 4 2 E 1018,8 17 0,0
21.10.2018 20:00:00 20,5 14,8 5 3 NW 1019,0 5 -
21.10.2018 19:00:00 21,7 15,5 8 4 NNW 1018,5 20 0,0
21.10.2018 18:00:00 23,8 16,1 8 4 N 1018,7 11 0,0
21.10.2018 17:00:00 24,7 15,9 13 7 NNE 1019,2 7 -
21.10.2018 16:00:00 25,2 16,9 11 6 NNE 1019,7 20 0,0
21.10.2018 15:00:00 24,8 17,0 9 5 N 1020,3 20 0,0
21.10.2018 14:00:00 24,6 16,8 13 7 N 1021,2 7 -
21.10.2018 13:00:00 23,5 17,0 11 6 N 1021,9 20 0,0
21.10.2018 12:00:00 22,4 16,4 9 5 N 1022,4 20 0,0
21.10.2018 11:00:00 19,8 15,9 5 3 N 1023,1 4,0 -
21.10.2018 10:00:00 17,1 15,3 8 4 N 1023,5 19 0,0
21.10.2018 09:00:00 14,7 14,1 8 4 N 1023,5 4,1 0,0
21.10.2018 08:00:00 14,2 13,7 9 5 N 1023,0 7 -
21.10.2018 07:00:00 14,4 13,8 9 5 N 1023,0 - 0,0
21.10.2018 06:00:00 14,4 13,9 8 4 N 1023,0 - 0,0
21.10.2018 05:00:00 14,4 14,1 11 6 N 1023,1 - -
21.10.2018 04:00:00 14,2 13,9 9 5 N 1023,3 4,2 0,0
21.10.2018 03:00:00 14,4 13,9 8 4 N 1023,5 - 0,0
21.10.2018 02:00:00 14,8 14,3 5 3 NNW 1023,6 - -
21.10.2018 01:00:00 15,1 14,6 5 3 N 1023,5 - 0,0
21.10.2018 00:00:00 15,7 14,9 4 2 N 1023,8 10 0,0
20.10.2018 23:00:00 16,3 15,5 5 3 N 1023,7 - -
20.10.2018 22:00:00 16,9 15,4 8 4 N 1023,0 11 0,0
20.10.2018 21:00:00 17,9 16,1 8 4 N 1023,0 12 0,0
20.10.2018 20:00:00 19,0 16,2 4 2 ENE 1023,0 7 -
20.10.2018 19:00:00 20,3 16,3 8 4 WNW 1022,4 20 0,0
20.10.2018 18:00:00 21,6 16,5 5 3 SW 1022,3 20 0,0
20.10.2018 17:00:00 20,6 16,8 4 2 WNW 1022,4 4,0 -
20.10.2018 16:00:00 20,6 17,2 2 1 NNE 1022,4 20 0,0
20.10.2018 15:00:00 21,0 17,8 2 1 N 1022,3 20 0,0
20.10.2018 14:00:00 20,8 17,8 4 2 NE 1022,7 3,0 -
20.10.2018 13:00:00 19,5 16,9 8 4 NNW 1022,9 20 0,0
20.10.2018 12:00:00 18,0 16,8 11 6 NNW 1021,9 20 0,0
20.10.2018 11:00:00 16,7 16,5 9 5 NNW 1022,6 7 -
20.10.2018 10:00:00 16,0 16,0 8 4 N 1022,5 12 0,0
20.10.2018 09:00:00 15,9 15,9 8 4 N 1021,5 7 0,0
20.10.2018 08:00:00 15,8 15,8 9 5 N 1020,7 5 -
20.10.2018 07:00:00 15,7 15,7 5 3 N 1020,4 4,8 0,0
20.10.2018 06:00:00 15,6 15,6 8 4 N 1019,8 4,7 0,0
20.10.2018 05:00:00 15,3 15,3 9 5 N 1019,2 4,7 -
20.10.2018 04:00:00 15,2 15,2 8 4 N 1019,5 6 0,0
20.10.2018 03:00:00 15,2 15,2 4 2 N 1019,7 8 0,0
20.10.2018 02:00:00 15,4 15,4 5 3 NNE 1019,2 - -
20.10.2018 01:00:00 15,7 15,7 2 1 ENE 1019,3 9 1,0
20.10.2018 00:00:00 15,6 15,6 4 2 NE 1019,3 16 5,0
19.10.2018 23:00:00 15,5 15,3 5 3 N 1018,8 1,8 -
19.10.2018 22:00:00 15,3 15,1 11 6 N 1018,6 2,7 11,0
19.10.2018 21:00:00 15,4 15,2 8 4 NNW 1018,6 1,2 27,0
19.10.2018 20:00:00 15,8 15,5 8 4 WNW 1017,8 3,0 -
19.10.2018 19:00:00 16,5 15,2 21 11 SW 1016,4 8 1,0
19.10.2018 18:00:00 18,6 17,9 13 7 ENE 1014,7 4,9 2,0
19.10.2018 17:00:00 18,6 18,1 13 7 ENE 1014,8 3,0 -
19.10.2018 16:00:00 18,3 17,8 5 3 NNE 1014,5 2,1 5,0
19.10.2018 15:00:00 18,3 17,7 2 1 NE 1014,8 2,3 4,0
19.10.2018 14:00:00 18,3 17,5 5 3 N 1015,1 4,0 -
19.10.2018 13:00:00 18,8 16,9 8 4 N 1015,1 18 0,2
19.10.2018 12:00:00 18,9 17,2 9 5 NNE 1015,0 18 0,0
19.10.2018 11:00:00 18,2 17,0 9 5 NE 1014,6 8 -
19.10.2018 10:00:00 17,5 16,5 9 5 NE 1014,1 16 0,0
19.10.2018 09:00:00 17,3 16,3 9 5 NW 1013,5 19 0,0
19.10.2018 08:00:00 17,1 16,1 5 3 SE 1012,7 8 -
19.10.2018 07:00:00 17,0 16,2 5 3 NNW 1012,7 18 0,0
19.10.2018 06:00:00 16,8 16,2 11 6 NNW 1012,0 14 0,2
19.10.2018 05:00:00 16,6 16,3 13 7 NNW 1011,7 3,7 -
19.10.2018 04:00:00 16,8 16,3 15 8 NW 1012,9 1,7 11,0
19.10.2018 03:00:00 17,0 16,5 4 2 S 1013,0 0,6 7,0
19.10.2018 02:00:00 17,1 16,6 8 4 WNW 1012,5 2,5 -
19.10.2018 01:00:00 17,4 16,4 13 7 W 1012,2 7 1,0
19.10.2018 00:00:00 17,5 16,5 8 4 NNW 1012,0 8 0,4
18.10.2018 23:00:00 17,3 16,8 5 3 NW 1011,9 9 -
18.10.2018 22:00:00 17,2 16,9 5 3 NNW 1011,2 4,1 0,6
18.10.2018 21:00:00 17,2 16,9 8 4 N 1011,0 3,1 0,4
18.10.2018 20:00:00 17,4 16,9 8 4 NW 1010,6 3,0 -
18.10.2018 19:00:00 17,2 16,7 9 5 NW 1010,6 1,9 7,0
18.10.2018 18:00:00 17,1 16,6 13 7 NW 1010,4 1,9 8,0
18.10.2018 17:00:00 17,4 16,9 9 5 N 1010,7 1,0 -
18.10.2018 16:00:00 17,3 16,5 9 5 N 1010,6 2,5 2,0
18.10.2018 15:00:00 18,4 16,6 11 6 N 1010,7 0,9 2,0
18.10.2018 14:00:00 20,9 15,0 11 6 N 1010,9 8 -
18.10.2018 13:00:00 20,8 15,3 11 6 N 1011,7 19 0,0
18.10.2018 12:00:00 19,7 15,6 13 7 N 1011,8 20 0,0
18.10.2018 11:00:00 18,1 15,2 15 8 N 1012,0 8 -
18.10.2018 10:00:00 17,2 15,5 9 5 N 1011,8 16 0,0
18.10.2018 09:00:00 15,3 14,8 9 5 NNW 1011,7 7 0,0
18.10.2018 08:00:00 15,4 15,2 9 5 N 1011,4 8 -
18.10.2018 07:00:00 15,4 15,1 5 3 NNE 1011,7 2,1 0,0

tt = Température de l'air
td = dewpoint
ff = Vitesse du vent
dd = Direction du vent
ppp = reduced air pressure
vv = visibility
rr = Quantités de précipitations

stations d'obs. à proximité